[[{"header":{"parameterUnit":"m.s-1","parameterCategory":1,"la1":30.2991,"la2":30.254,"lo1":-89.0895,"lo2":-89.0444,"dy":0.0017,"dx":0.0017,"nx":28,"ny":28,"refTime":"2024-03-24T09:00:00:Z","depth":0,"parameterNumber":2,"parameterNumberName":"U-component_of_WINDS"},"data":[0,0,0,0,0,0,0,0,0,0,0,0,0,0,0,0,0,0,0,0,0,0,0,0,0,0,0,0,0,0,0,0,0,0,0,0,0,0,0,0,0,0,0,0,0,0,0,0,0,0,0,0,0,0,0,0,0,0,-7.3077,-7.3078,0,-7.3206,-7.3207,-7.3209,-7.3222,-7.3221,-7.322,-7.3218,-7.3349,-7.3354,-7.3358,0,0,0,0,0,0,0,0,0,0,0,0,0,-7.2842,-7.2846,-7.3077,-7.3079,-7.308,-7.3206,-7.3207,-7.3209,-7.3223,-7.3221,-7.3219,-7.3218,-7.3347,-7.3353,-7.3359,0,0,0,0,0,0,0,0,0,0,0,0,0,-7.2955,-7.2848,-7.3077,-7.3102,-7.3106,-7.3205,-7.3207,-7.321,-7.3223,-7.3221,-7.3219,-7.3217,-7.3346,-7.3352,-7.3359,-7.3442,0,0,-7.3381,-7.3384,0,0,0,0,0,0,0,0,-7.2948,-7.2963,-7.3097,-7.3101,-7.3105,-7.3196,-7.3172,-7.3287,-7.3223,-7.3178,-7.3218,-7.3216,-7.33,-7.331,-7.3339,-7.3448,-7.3454,-7.3382,-7.3386,-7.3389,-7.3391,0,0,0,0,0,0,0,-7.294,-7.2958,-7.3128,-7.3099,-7.3104,-7.3107,-7.3121,-7.3194,-7.3248,-7.3182,-7.3183,-7.3199,-7.3301,-7.3332,-7.3342,-7.3456,-7.3381,-7.3388,-7.3392,-7.3395,-7.3639,-7.3641,0,0,0,0,0,0,-7.2928,-7.2951,-7.3124,-7.3132,-7.302,-7.3113,-7.3128,-7.3169,-7.3248,-7.3258,-7.32,-7.3199,-7.3321,-7.3334,-7.3346,-7.3447,-7.3389,-7.3395,-7.3399,-7.3637,-7.3639,-7.3642,0,0,0,0,0,0,-7.2923,-7.2943,-7.3119,-7.3042,-7.3064,-7.3119,-7.3164,-7.3172,-7.3203,-7.3261,-7.3271,-7.3221,-7.332,-7.3337,-7.3418,-7.3452,-7.3399,-7.3405,-7.3634,-7.3637,-7.3641,-7.365,0,0,0,0,0,0,-7.2916,-7.2941,-7.2973,-7.3043,-7.3069,-7.3188,-7.3166,-7.3176,-7.3215,-7.3214,-7.3284,-7.3293,-7.332,-7.3408,-7.3425,-7.3461,-7.341,-7.3631,-7.3636,-7.364,-7.3647,-7.3653,-7.3659,0,0,0,0,0,-7.2908,-7.2971,-7.2975,-7.2996,-7.311,-7.319,-7.3205,-7.3234,-7.3218,-7.325,-7.3288,-7.3291,-7.3446,-7.3416,-7.3436,-7.3474,-7.3629,-7.3634,-7.3639,-7.3644,-7.3652,-7.3658,0,0,0,0,0,0,-7.2903,-7.298,-7.2986,-7.3073,-7.3125,-7.3192,-7.3234,-7.3242,-7.3299,-7.3296,-7.333,-7.3345,-7.3425,-7.3458,-7.3423,-7.3558,-7.3536,-7.3545,-7.3533,-7.3541,-7.3547,-7.3536,-7.3416,0,0,0,0,0,-7.2913,-7.2972,-7.3036,-7.3107,-7.3133,-7.3179,-7.3215,-7.3233,-7.3288,-7.331,-7.3354,-7.3407,-7.3467,-7.3506,-7.3566,-7.3653,-7.3667,-7.3689,-7.3695,-7.37,-7.3706,-7.3754,-7.3764,-7.3659,-7.3659,-7.3658,0,0,-7.2932,-7.2981,-7.3016,-7.3107,-7.3149,-7.3209,-7.3197,-7.3261,-7.3306,-7.332,-7.3399,-7.3433,-7.3494,-7.3579,-7.3618,-7.3609,-7.3739,-7.3706,-7.3709,-7.3714,-7.376,-7.377,-7.3779,-7.3662,-7.3661,-7.3661,0,0,-7.2997,-7.3042,-7.3105,-7.3148,-7.3213,-7.3243,-7.3259,-7.3325,-7.3348,-7.3429,-7.344,-7.3494,-7.3598,-7.3641,-7.3677,-7.376,-7.3765,-7.3779,-7.3809,-7.3855,-7.3863,-7.387,-7.3898,-7.3908,-7.3786,-7.3786,-7.3786,0,-7.3013,-7.3104,-7.3136,-7.32,-7.3239,-7.3256,-7.332,-7.336,-7.344,-7.3467,-7.3456,-7.3587,-7.3629,-7.3723,-7.3744,-7.3773,-7.379,-7.3769,-7.3859,-7.3867,-7.3875,-7.3902,-7.3912,-7.3787,-7.3787,-7.3787,-7.3787,0,-7.3119,-7.3182,-7.3226,-7.3303,-7.3348,-7.3411,-7.3453,-7.3494,-7.3509,-7.3541,-7.3622,-7.3675,-7.3744,-7.3769,-7.3784,-7.3865,-7.3857,-7.3853,-7.383,-7.3885,-7.3911,-7.3922,-7.3789,-7.3788,-7.3788,-7.3788,0,0,-7.3182,-7.3278,-7.3293,-7.3328,-7.3402,-7.3451,-7.3516,-7.3584,-7.3618,-7.3674,-7.3728,-7.3817,-7.3813,-7.3853,-7.3874,-7.3915,-7.3976,-7.3905,-7.3907,-7.3914,-7.4067,-7.4067,-7.4079,-7.3981,-7.3983,-7.3985,-7.4061,0,-7.3254,-7.3369,-7.3401,-7.3498,-7.3556,-7.3574,-7.363,-7.3681,-7.3713,-7.3767,-7.3803,-7.3864,-7.3855,-7.388,-7.3921,-7.3959,-7.4006,-7.3955,-7.403,-7.4032,-7.4011,-7.4093,-7.4094,-7.4163,-7.4071,-7.4073,-7.4074,0,-7.3353,-7.341,-7.3513,-7.3579,-7.3605,-7.3655,-7.372,-7.3772,-7.383,-7.3851,-7.3897,-7.3914,-7.3981,-7.3958,-7.4052,-7.4016,-7.4049,-7.4073,-7.4076,-7.4082,-7.4054,-7.4098,-7.4186,-7.4195,-7.4091,-7.4089,-7.4088,0,-7.3386,-7.349,-7.3565,-7.3595,-7.3674,-7.3708,-7.3743,-7.38,-7.3839,-7.3897,-7.3922,-7.3987,-7.4022,-7.4071,-7.4106,-7.4086,-7.4196,-7.4176,-7.4213,-7.4212,-7.4233,-7.423,-7.4324,-7.4259,-7.4258,-7.4258,-7.4258,0,-7.3461,-7.3523,-7.358,-7.3626,-7.3696,-7.3732,-7.38,-7.3836,-7.3886,-7.3938,-7.3959,-7.4008,-7.4052,-7.4106,-7.4134,-7.4206,-7.4222,-7.424,-7.4246,-7.4237,-7.4234,-7.4256,-7.4251,-7.4261,-7.426,-7.426,-7.4259,0,-7.3508,-7.355,-7.3632,-7.3701,-7.372,-7.3768,-7.3827,-7.3872,-7.3905,-7.3972,-7.3989,-7.4042,-7.4107,-7.4147,-7.4231,-7.4249,-7.4328,-7.4334,-7.4308,-7.431,-7.4344,-7.434,-7.4454,-7.447,-7.4396,-7.4396,-7.4397,0,-7.3552,-7.36,-7.3674,-7.3711,-7.3746,-7.3806,-7.3846,-7.3884,-7.3925,-7.3996,-7.4032,-7.41,-7.4155,-7.4259,-7.4304,-7.4368,-7.4374,-7.441,-7.4383,-7.4372,-7.4371,-7.4367,-7.4371,-7.4413,-7.4413,-7.4414,-7.4414,0,-7.3625,-7.3643,-7.3701,-7.3766,-7.3813,-7.3866,-7.3919,-7.3948,-7.3995,-7.4041,-7.4108,-7.4151,-7.4237,-7.4302,-7.437,-7.4406,-7.4418,-7.4423,-7.4434,-7.4424,-7.4406,-7.4414,-7.4317,-7.4419,-7.4419,-7.4418,-7.4418,-7.4418,-7.367,-7.3713,-7.3772,-7.3836,-7.388,-7.3929,-7.3974,-7.4014,-7.4071,-7.4143,-7.4163,-7.4233,-7.4291,-7.4383,-7.4421,-7.4476,-7.4471,-7.4488,-7.4492,-7.4495,-7.4494,-7.4399,-7.4489,-7.4489,-7.4489,-7.4489,-7.4489,0,-7.3742,-7.3781,-7.384,-7.3913,-7.3963,-7.3971,-7.403,-7.4071,-7.4133,-7.4186,-7.424,-7.4318,-7.4382,-7.4433,-7.4499,-7.4534,-7.4541,-7.455,-7.4546,-7.4554,-7.4497,-7.4479,-7.4543,-7.4543,-7.4543,-7.4543,-7.4543,-7.4543,-7.3785,-7.3858,-7.3884,-7.3979,-7.4018,-7.4087,-7.412,-7.4165,-7.4207,-7.4293,-7.4346,-7.438,-7.4432,-7.4502,-7.4562,-7.4575,-7.4598,-7.4605,-7.4619,-7.4564,-7.4558,-7.4552,-7.4535,-7.461,-7.461,-7.4671,-7.4672,-7.4672]},{"header":{"parameterUnit":"m.s-1","parameterCategory":1,"la1":30.2991,"la2":30.254,"lo1":-89.0895,"lo2":-89.0444,"dy":0.0017,"dx":0.0017,"nx":28,"ny":28,"refTime":"2024-03-24T09:00:00:Z","depth":0,"parameterNumber":3,"parameterNumberName":"V-component_of_WINDS"},"data":[0,0,0,0,0,0,0,0,0,0,0,0,0,0,0,0,0,0,0,0,0,0,0,0,0,0,0,0,0,0,0,0,0,0,0,0,0,0,0,0,0,0,0,0,0,0,0,0,0,0,0,0,0,0,0,0,0,0,5.8069,5.8069,0,5.8132,5.8132,5.8133,5.8112,5.8111,5.8109,5.8108,5.817,5.8173,5.8175,0,0,0,0,0,0,0,0,0,0,0,0,0,5.7929,5.7932,5.8069,5.8069,5.807,5.8132,5.8132,5.8133,5.8112,5.8111,5.8109,5.8108,5.8169,5.8172,5.8176,0,0,0,0,0,0,0,0,0,0,0,0,0,5.7991,5.7933,5.8069,5.8067,5.8068,5.8131,5.8132,5.8134,5.8113,5.8111,5.8109,5.8107,5.8168,5.8172,5.8176,5.8244,0,0,5.8189,5.8191,0,0,0,0,0,0,0,0,5.7987,5.7996,5.8067,5.8068,5.8068,5.8112,5.8106,5.817,5.8113,5.8096,5.8108,5.8106,5.8152,5.8157,5.8174,5.8247,5.8249,5.819,5.8192,5.8194,5.8196,0,0,0,0,0,0,0,5.7983,5.7993,5.8093,5.8068,5.8069,5.8063,5.807,5.8118,5.8134,5.8097,5.8096,5.8104,5.8152,5.817,5.8175,5.825,5.819,5.8194,5.8196,5.8198,5.8385,5.8388,0,0,0,0,0,0,5.7978,5.7989,5.8091,5.8095,5.8022,5.8067,5.8075,5.81,5.8134,5.8137,5.8105,5.8102,5.8163,5.817,5.8177,5.8262,5.8194,5.8198,5.8201,5.8383,5.8386,5.8388,0,0,0,0,0,0,5.7975,5.7988,5.8089,5.8042,5.8055,5.8072,5.8101,5.8102,5.812,5.814,5.8143,5.812,5.8162,5.8171,5.8228,5.8263,5.82,5.8204,5.838,5.8384,5.8387,5.843,0,0,0,0,0,0,5.7972,5.7987,5.8013,5.8043,5.8057,5.814,5.8103,5.8105,5.8128,5.8125,5.8155,5.8158,5.8161,5.8222,5.8233,5.8268,5.8208,5.8377,5.8382,5.8386,5.8425,5.8434,5.8442,0,0,0,0,0,5.7967,5.8021,5.8014,5.8027,5.809,5.8142,5.815,5.8153,5.8131,5.8157,5.8171,5.8157,5.8257,5.8228,5.824,5.8277,5.8375,5.8381,5.8386,5.8421,5.8432,5.8442,0,0,0,0,0,0,5.7993,5.8025,5.8018,5.8083,5.811,5.8138,5.8172,5.8164,5.8197,5.8193,5.8194,5.8201,5.8261,5.8274,5.8241,5.8346,5.8313,5.8321,5.8336,5.8346,5.8355,5.8351,5.8211,0,0,0,0,0,5.8006,5.8046,5.8071,5.8127,5.8141,5.8154,5.8177,5.8177,5.8204,5.8215,5.8233,5.8259,5.8297,5.8322,5.8357,5.8426,5.8434,5.8458,5.8466,5.8473,5.848,5.8521,5.8533,5.8406,5.8406,5.8406,0,0,5.8035,5.8057,5.8082,5.8133,5.8154,5.8196,5.8164,5.8208,5.824,5.8222,5.8279,5.8292,5.8322,5.8386,5.8415,5.8399,5.8517,5.8479,5.8485,5.8489,5.8528,5.854,5.8551,5.841,5.8409,5.8408,0,0,5.8108,5.8128,5.8178,5.8201,5.8233,5.8242,5.8254,5.8284,5.8293,5.835,5.8339,5.8375,5.8439,5.8462,5.8482,5.8566,5.8556,5.8577,5.8622,5.8662,5.8672,5.8681,5.8714,5.8726,5.8585,5.8585,5.8585,0,5.8139,5.8202,5.8205,5.8252,5.8276,5.8263,5.8314,5.8335,5.8377,5.8394,5.8375,5.8458,5.8477,5.8548,5.8569,5.8584,5.86,5.8575,5.867,5.8679,5.8688,5.872,5.8732,5.8587,5.8587,5.8587,5.8586,0,5.824,5.8284,5.8321,5.8365,5.8392,5.8441,5.8451,5.8478,5.8476,5.8487,5.8546,5.8569,5.861,5.8626,5.8624,5.8698,5.8688,5.8669,5.8636,5.8702,5.8733,5.8745,5.8591,5.859,5.8589,5.8589,0,0,5.8333,5.8379,5.8393,5.8414,5.845,5.8484,5.8532,5.8574,5.8599,5.8628,5.8671,5.8726,5.8711,5.8733,5.8733,5.8767,5.8837,5.8745,5.8746,5.8765,5.8925,5.8941,5.8955,5.883,5.8832,5.8834,5.8923,0,5.8413,5.85,5.8505,5.8584,5.8626,5.8615,5.8658,5.8684,5.8696,5.8733,5.8744,5.8786,5.876,5.8774,5.8807,5.8822,5.887,5.8815,5.887,5.8872,5.8867,5.897,5.8987,5.907,5.8935,5.8937,5.8938,0,5.8517,5.8553,5.8638,5.867,5.8688,5.8727,5.8767,5.8802,5.8832,5.8838,5.8865,5.8861,5.8911,5.8874,5.8945,5.8908,5.893,5.8941,5.8944,5.8952,5.8912,5.8984,5.9097,5.9111,5.8956,5.8954,5.8953,0,5.8582,5.865,5.871,5.8728,5.8767,5.8795,5.8812,5.884,5.8866,5.8901,5.8918,5.8957,5.898,5.901,5.9017,5.8989,5.9089,5.9052,5.9097,5.9097,5.9121,5.912,5.9242,5.9129,5.9129,5.9129,5.9129,0,5.8672,5.8725,5.874,5.8778,5.8837,5.8841,5.89,5.8915,5.8941,5.8981,5.8972,5.901,5.9014,5.9054,5.9058,5.9118,5.9127,5.9135,5.9136,5.9138,5.9138,5.9155,5.9151,5.9132,5.9131,5.9131,5.913,0,5.8755,5.8767,5.8833,5.8865,5.8874,5.8917,5.8944,5.898,5.8991,5.9042,5.9054,5.9071,5.9117,5.9126,5.9179,5.9183,5.9255,5.9249,5.9246,5.9247,5.9293,5.929,5.9434,5.9454,5.9324,5.9325,5.9326,0,5.8814,5.8855,5.8892,5.892,5.8939,5.8982,5.901,5.9015,5.9044,5.9083,5.9115,5.916,5.9197,5.9271,5.9288,5.9329,5.9326,5.9374,5.9332,5.9334,5.9332,5.9331,5.9336,5.9383,5.9384,5.9385,5.9386,0,5.8919,5.8923,5.8964,5.9007,5.9041,5.9074,5.9106,5.9129,5.9138,5.9171,5.9219,5.9248,5.9304,5.935,5.9392,5.9409,5.9401,5.9399,5.9412,5.9416,5.9415,5.942,5.9272,5.9396,5.9395,5.9394,5.9394,5.9393,5.8995,5.9032,5.9065,5.9111,5.9136,5.9167,5.9203,5.9219,5.926,5.9308,5.9307,5.9361,5.9391,5.9447,5.9467,5.9509,5.9494,5.9512,5.9518,5.9523,5.953,5.9405,5.9516,5.9516,5.9515,5.9515,5.9515,0,5.9103,5.9124,5.9166,5.9212,5.9249,5.9237,5.9272,5.9304,5.9351,5.9381,5.9419,5.9475,5.952,5.954,5.9585,5.9615,5.9612,5.9627,5.9627,5.9631,5.9538,5.9524,5.9629,5.9629,5.9629,5.9628,5.9628,5.9628,5.9163,5.9228,5.9236,5.9312,5.9332,5.9386,5.9408,5.9437,5.9461,5.9525,5.9563,5.9576,5.9603,5.965,5.9691,5.9696,5.9714,5.9732,5.9735,5.9649,5.9637,5.9627,5.9614,5.9735,5.9735,5.9825,5.9826,5.9827]}]]